Location: Muenchen
(48.1800°N, 11.5800°E)
Time: 14:44:42
(UTC+02:00)

Tiros 1 - Visible Passes

Search period start: 20 July 2017 00:00
Search period end: 30 July 2017 00:00
Orbit: 631 x 664 km, 48.4° (Epoch: 19 July)

Date Brightness Start Highest point End Pass type
(mag) Time Alt. Az. Time Alt. Az. Time Alt. Az.
20 Jul 9.3 02:22:51 12° SE 02:22:51 12° SE 02:24:17 10° ESE visible
20 Jul 7.6 04:00:30 18° SW 04:03:35 45° SSE 04:08:04 10° E visible
21 Jul 8.4 02:47:40 25° SSE 02:47:58 25° SE 02:51:45 10° E visible
21 Jul 7.2 04:25:19 12° WSW 04:29:41 69° SSE 04:34:22 10° E visible
22 Jul 7.6 03:12:26 33° SSW 03:13:52 43° SSE 03:18:19 10° E visible
22 Jul 7.2 04:51:12 10° W 04:55:53 88° SSE 05:00:38 10° E visible
23 Jul 8.7 01:59:32 21° ESE 01:59:32 21° ESE 02:01:57 10° E visible
23 Jul 7.1 03:37:11 23° WSW 03:39:57 66° SSE 03:44:38 10° E visible
24 Jul 7.6 02:24:15 40° SSE 02:24:15 40° SSE 02:28:33 10° E visible
24 Jul 7.1 04:01:53 12° WSW 04:06:10 87° SSE 04:10:53 10° E visible
25 Jul 9.3 01:11:17 14° E 01:11:17 14° E 01:12:09 10° E visible
25 Jul 7.1 02:48:56 43° SW 02:50:15 64° SSE 02:54:53 10° E visible
25 Jul 7.2 04:27:45 10° W 04:32:26 86° N 04:37:10 10° E visible
26 Jul 8.2 01:35:57 30° ESE 01:35:57 30° ESE 01:38:49 10° E visible
26 Jul 7.0 03:13:36 23° WSW 03:16:26 85° S 03:21:08 10° E visible
26 Jul 7.2 04:54:01 10° W 04:58:42 87° SSW 05:03:26 10° ESE visible
27 Jul 7.1 02:00:35 61° SSE 02:00:35 61° SSE 02:05:09 10° E visible
27 Jul 7.1 03:38:14 11° W 03:42:42 86° N 03:47:25 10° E visible
28 Jul 8.9 00:47:34 19° E 00:47:34 19° E 00:49:03 10° E visible
28 Jul 7.0 02:25:12 43° WSW 02:26:42 84° S 02:31:24 10° E visible
28 Jul 7.1 04:04:19 10° W 04:08:59 88° SSW 04:13:42 10° E visible
29 Jul 7.7 01:12:08 41° ESE 01:12:08 41° ESE 01:15:24 10° E visible
29 Jul 7.1 02:49:47 20° W 02:52:59 86° N 02:57:40 10° E visible
29 Jul 7.1 04:30:34 10° W 04:35:12 69° SSW 04:39:53 10° ESE visible
29 Jul 9.4 23:59:02 11° E 23:59:02 11° E 23:59:18 10° E visible
